Find Starlink 32680

NORAD ID: 62423 Int'l Des: 2024-249 Owner: SPXS Country: US Constellation: starlink operational
LEOCIRCULAR

实时位置

正在加载3D地球...

关于 Starlink 32680

正在加载描述...

即将过境

Passes for default location (London). Set your location on the main map for personalized predictions.

高度历史

Loading altitude history...

两行轨道根数

1 62423U 24249Q 26123.95399101 .00029581 00000-0 10798-2 0 9991
2 62423 43.0025 2.1418 0001639 272.6225 87.4439 15.27590251 76267
Epoch: May 3, 2026 • Age: 14 hours

当前状态

高度 491.8 km
速度 7.62 km/s
星下点 -34.25°S, 175.97°E
发射日期 Dec 23, 2024
运行时间 1.3 years
类型 internet

技术详情

分类 Payload
质量 730.00 kg
干质量 700.00 kg
总质量 730.00 kg
长度 0.30 m
直径 4.10 m
跨度 29.00 m
形状 Box + pan
制造商 SPXS
平台类型 Starlink V2M
阶段状态 In Orbit
所有者/国家 SPXS/US

Most Searched